Estación Meteorológica Peña el Pijo (Robertgarden) [ 11/14/19 11:50:34 CET ]

Fecha Hora Presion(HPa) Temp (°C) Humedad % Rocio (°C) Viento ( m/s) Direccion Lluvia 1Hora(mm) Lluvia 24H(mm) LLuvia Total(mm)
2019-Jun-22 01:08:57 1010.100 - - - - WSW     330.48
2019-Jun-22 02:09:25 1010.200 - - - - WSW     330.48
2019-Jun-22 03:11:01 1010.000 - - - - WSW     330.48
2019-Jun-22 04:10:36 1009.600 - - - - WSW     330.48
2019-Jun-22 05:11:53 1009.400 - - - - WSW     330.48
2019-Jun-22 06:09:24 1009.600 - - - - WSW     330.48
2019-Jun-22 07:09:41 1010.000 - - - - WSW     330.48
2019-Jun-22 08:09:23 1010.200 - - - - WSW     330.48
2019-Jun-22 09:08:55 1010.200 - - - - WSW     330.48
2019-Jun-22 10:08:55 1010.200 - - - - WSW     330.48
2019-Jun-22 11:09:12 1009.700 - - - - WSW     330.48
2019-Jun-22 12:09:17 1009.400 - - - - WSW     330.48
2019-Jun-22 13:09:45 1009.200 - - - - WSW     330.48
2019-Jun-22 14:09:26 1008.800 - - - - WSW     330.48
2019-Jun-22 15:09:19 1008.300 - - - - WSW     330.48
2019-Jun-22 16:09:27 1007.800 - - - - WSW     330.48
2019-Jun-22 17:09:24 1007.500 - - - - WSW     330.48
2019-Jun-22 18:09:25 1007.200 - - - - WSW     330.48
2019-Jun-22 19:09:20 1007.300 - - - - WSW     330.48
2019-Jun-22 20:09:07 1007.900 - - - - WSW     330.48
2019-Jun-22 21:09:02 1008.200 - - - - WSW     330.48
2019-Jun-22 22:09:31 1008.500 - - - - WSW     330.48
2019-Jun-22 23:09:15 1009.200 - - - - WSW     330.48

Temperatura Máxima:    Temperatura Mínima:
Presión Máxima:1010.200 Hpa    Presión Mínima:1007.200 Hpa


Volver